SL-14 DEB

Satellite information

Favourite Embed

Satellite Type and Status

DEBRISIN ORBIT

Key statistics

Satellite SL-14 DEB at a glance.

Uptime

12442

Days in orbit

Revolutions

≈ 14.2

Per day

Orbit

LEO

Low Earth Orbit

Inclination

82.5

Latest

Satellite identification and parameters

Extended collection of information and parameters for SL-14 DEB.

Object identification

Identified? True

Debris? True

Object name: SL-14 DEB

International designator: 1991-056BP

Object number (NORAD): 45325

Object ID (CCSDS): 45325

Country: COMMONWEALTH OF INDEPENDENT STATES (CIS)

Current information (Y/N): Y

RCS size: SMALL

Orbital parameters

Period: 101.064 minutes

Inclination: 82.5281 deg

SMA: 7187.185 km

Apoapsis: 874.669 km

Periapsis: 743.431 km

RAAN: 180.6549 deg

Eccentricy: 0.00912999

Argument of periapsis: 196.7401 deg

Mean anomaly: 163.0765 deg

Mean motion: 14.24834951 rev/day

Mean motion (dot): 0.00017764 rev/day2

B* drag term: 0.0072730817 1/REarth

Two-line elements (TLE)

Creation date: Sept. 6, 2025, 2:09 a.m.

Reference frame: TEME

Reference center: EARTH

Epoch: Sept. 5, 2025, 6:46 p.m. UTC

TLE line 0: 0 SL-14 DEB

TLE line 1: 1 45325U 91056BP 25248.78214378 .00017764 00000-0 72731-2 0 9998

TLE line 2: 2 45325 82.5281 180.6549 0091300 196.7401 163.0765 14.24834951277590

Live tracking on map

Real-time ground track for satellite SL-14 DEB.

In-orbit conjunctions

A list of the most updated potential collisions computed for object SL-14 DEB.

Target Orbit TCA Probability of collision Miss distance Type
FENGYUN 1C DEB SSO 2024-09-28 07:41:35 0.0007209007 206.0 (m) DEBRIS
SL-8 R/B LEO 2024-07-14 23:09:52 0.001409961 108.0 (m) ROCKET BODY

Associated space launch

Third generation meteorological satellite

SL-14 DEB was lifted into orbit during the mission ‘Tsiklon-3 | Meteor-3 5’, on board a Tsiklon-3 space rocket.

The launch took place on Aug. 15, 1991, 9:15 a.m. from 32/2.

For more information about the launch, click the button.

Launch to space Tsiklon-3 | Meteor-3 5
Tsiklon-3 | Meteor-3 5

Agency: N/A

Status: Launch Successful

Launch date: Aug. 15, 1991, 9:15 a.m. UTC

Rocket: Tsiklon-3

Launch pad: 32/2

Location: Plesetsk Cosmodrome, Russian Federation

...

Latest news about this satellite

There are no fresh news available about this satellite. Check back as we update our databases every day.


Newsletter sign-up

Weekly statistics, charts and insights to help you stay on top of the space industry.